STARLINK-34052, 63874

Orbit data source: Space-Track

STARLINK-34052, 63874 is a payload satellite owned by SpaceX/Seattle (US) in LEO that was launched on Sat, 10 May 2025 UTC via an FALCON 9 launch vehicle from the Air Force Western Test Range (AFWTR). Payload-class satellites include a variety of spacecraft equipped with specific instruments for various scientific and technological missions. These include communications satellites like Starlink; space stations such as the ISS; scientific satellites like the Hubble; Earth observation satellites from companies like Planet Labs, Umbra, and HawkEye 360; GPS; miniature CubeSats for education and research; and military/defense satellites.

Loading next visibility...
Identifier
63874, 2025-094L
Orbit
LEO
Country
Flag of USUS
Related business
Manufacturer
SpaceX/Seattle
Mission
Operational Commercial Communications
Bus & Motor
STARLINK V2MO, Unknown motor
Mass
575 kg wet, ~530 kg dry
Launch date (UTC)
2025-05-10 (1 year ago)
Launch vehicle
FALCON 9
Launch site
Air Force Western Test Range (AFWTR)
Object type
Payload
Rocket body
Debris
Shape & HBR
Box + 2 Pan, 17.7 m
Radar Cross Section
36.964 m², Large (>1 m²)

Expand to show TLE details & history
Last TLE update: 1 day ago

TLE from 1 day ago
0 STARLINK-34052
1 63874U 25094L   26170.85602840  .00003199  00000-0  27568-3 0  9990
2 63874  70.0025 336.9843 0002710 257.4403 102.6453 14.98337701 62502
Epoch: 2026-06-19T20:32Z
TLE epoch observation values (Epoch: 2026-06-19T20:32:40.853Z)
Latitude
-0.00005°
Longitude
120.73506°
Altitude
574.869 km
Speed
7.573 km/s
True Right ascension
22h 27m 56s
True Declination
0° 00' 00"
Sunlit
Object was in daylight at epoch
Visualization orbit readout
Latitude
Unknown
Longitude
Unknown
Altitude
Unknown
Speed
Unknown
Apparent Right ascension
Unknown
Apparent Declination
Unknown
Sunlit
N/A
Visualization observer readout
Local Sidereal Time
08:33:21
Azimuth
Unknown
Elevation
Unknown
Doppler factor
Unknown
Orbital elements
Apogee altitude
571.863 km
Perigee altitude
568.097 km
Semi-major axis
6,948.117 km
Eccentricity
0.00027
Inclination
70.0025°
RAAN
336.9843°
Arg. of periapsis
257.4403°
True anomaly
102.6756°
Mean anomaly
102.6453°
Eccentric anomaly
102.66045°
Mean motion
3.74751 °/min
Orbital period
96.06 mins
BSTAR
0.00027568
Loading maneuver chart data...
Computing Atmospheric mass density...
Loading historical data...
Loading historical data...
Loading historical data...
Loading historical data...
Loading historical data...
Loading historical data...
Loading historical data...

Documentation

Showing up to 5 results
|